QPF
0.00 0.00 0.00 0.00 0.00 0.00 0.01 0.01 0.01 0.01 0.00 0.01 0.00 0.00 0.00 0.00 0.01 0.01 0.01 0.01 0.00 0.00 0.00 0.00 0.00 0.00 0.01 0.01 0.01 0.01 0.01 0.02 0.02 0.02 0.01 0.01 0.01 0.01 0.00 0.00 0.01 0.01 0.01 0.00
0.00 0.00 0.00 0.00 0.00 0.00 0.00 0.01 0.01 0.01 0.01 0.01 0.01 0.00 0.00 0.00 0.00 0.00 0.01 0.00 0.00 0.00 0.00 0.00 0.00 0.01 0.01 0.01 0.01 0.01 0.02 0.02 0.02 0.02 0.02 0.01 0.01 0.01 0.01 0.01 0.01 0.01 0.01 0.01
0.01 0.00 0.01 0.01 0.00 0.00 0.00 0.00 0.01 0.01 0.01 0.01 0.01 0.00 0.01 0.00 0.01 0.01 0.01 0.01 0.01 0.01 0.01 0.00 0.01 0.01 0.01 0.01 0.01 0.01 0.02 0.02 0.02 0.02 0.02 0.01 0.01 0.01 0.01 0.01 0.01 0.01 0.01 0.01
0.01 0.01 0.01 0.00 0.00 0.00 0.00 0.00 0.00 0.01 0.01 0.01 0.01 0.01 0.01 0.01 0.01 0.01 0.01 0.01 0.01 0.01 0.01 0.01 0.01 0.01 0.01 0.01 0.01 0.01 0.02 0.02 0.02 0.02 0.02 0.01 0.01 0.01 0.01 0.01 0.01 0.01 0.01 0.02
0.02 0.01 0.00 0.00 0.00 0.00 0.00 0.00 0.00 0.01 0.01 0.01 0.01 0.01 0.01 0.02 0.02 0.02 0.02 0.01 0.01 0.01 0.01 0.01 0.01 0.00 0.01 0.01 0.01 0.01 0.02 0.02 0.02 0.02 0.02 0.02 0.01 0.01 0.01 0.01 0.01 0.01 0.01 0.01
0.02 0.01 0.01 0.00 0.00 0.00 0.00 0.00 0.00 0.00 0.01 0.01 0.01 0.01 0.01 0.01 0.02 0.02 0.01 0.01 0.01 0.01 0.01 0.01 0.01 0.01 0.01 0.01 0.01 0.01 0.02 0.03 0.02 0.02 0.01 0.01 0.02 0.02 0.01 0.01 0.01 0.01 0.01 0.01
0.01 0.01 0.00 0.00 0.00 0.00 0.01 0.00 0.00 0.00 0.01 0.01 0.01 0.01 0.01 0.01 0.01 0.01 0.01 0.01 0.01 0.01 0.01 0.01 0.00 0.01 0.01 0.01 0.01 0.02 0.03 0.03 0.03 0.02 0.01 0.01 0.01 0.01 0.01 0.01 0.01 0.00 0.00 0.01
0.01 0.02 0.01 0.00 0.00 0.00 0.01 0.00 0.00 0.00 0.00 0.01 0.01 0.01 0.01 0.01 0.01 0.01 0.01 0.01 0.01 0.01 0.01 0.01 0.01 0.01 0.01 0.01 0.02 0.02 0.03 0.03 0.03 0.02 0.01 0.01 0.01 0.01 0.01 0.01 0.01 0.01 0.01 0.01
0.01 0.01 0.00 0.00 0.00 0.01 0.01 0.01 0.00 0.00 0.00 0.01 0.01 0.01 0.01 0.01 0.01 0.01 0.01 0.01 0.01 0.01 0.01 0.02 0.02 0.02 0.02 0.02 0.03 0.03 0.03 0.03 0.03 0.02 0.01 0.01 0.01 0.01 0.01 0.01 0.01 0.01 0.01 0.01
0.01 0.00 0.00 0.00 0.01 0.01 0.01 0.01 0.00 0.00 0.01 0.01 0.01 0.01 0.01 0.01 0.01 0.01 0.01 0.02 0.02 0.02 0.02 0.03 0.02 0.02 0.02 0.02 0.03 0.03 0.03 0.03 0.02 0.02 0.01 0.01 0.01 0.01 0.01 0.01 0.01 0.01 0.01 0.01
0.00 0.00 0.01 0.01 0.01 0.01 0.00 0.00 0.00 0.00 0.01 0.01 0.01 0.01 0.01 0.01 0.01 0.02 0.02 0.02 0.03 0.03 0.02 0.02 0.02 0.02 0.02 0.01 0.02 0.03 0.02 0.02 0.01 0.01 0.01 0.01 0.01 0.01 0.01 0.01 0.02 0.02 0.01 0.01
0.01 0.01 0.01 0.01 0.00 0.00 0.00 0.00 0.00 0.00 0.01 0.01 0.01 0.02 0.02 0.02 0.02 0.02 0.02 0.02 0.02 0.02 0.02 0.02 0.02 0.02 0.02 0.01 0.02 0.02 0.02 0.01 0.01 0.01 0.01 0.01 0.01 0.01 0.01 0.01 0.01 0.01 0.01 0.02
0.01 0.01 0.01 0.01 0.00 0.00 0.00 0.00 0.00 0.01 0.01 0.01 0.01 0.02 0.02 0.03 0.02 0.02 0.03 0.02 0.02 0.02 0.02 0.02 0.02 0.02 0.02 0.01 0.01 0.01 0.01 0.01 0.01 0.01 0.01 0.01 0.01 0.01 0.00 0.00 0.01 0.01 0.01 0.01
0.01 0.01 0.01 0.00 0.00 0.00 0.00 0.00 0.00 0.01 0.01 0.01 0.02 0.02 0.03 0.03 0.03 0.03 0.03 0.03 0.02 0.02 0.01 0.02 0.01 0.01 0.01 0.01 0.01 0.01 0.01 0.01 0.01 0.01 0.01 0.01 0.01 0.01 0.01 0.01 0.01 0.01 0.01 0.01
0.01 0.01 0.01 0.00 0.00 0.00 0.00 0.00 0.00 0.01 0.01 0.01 0.01 0.02 0.03 0.03 0.03 0.04 0.04 0.03 0.02 0.01 0.01 0.01 0.01 0.02 0.01 0.01 0.01 0.01 0.01 0.01 0.01 0.01 0.01 0.01 0.01 0.01 0.01 0.01 0.01 0.01 0.01 0.01
0.01 0.01 0.01 0.01 0.01 0.00 0.00 0.00 0.01 0.01 0.01 0.01 0.01 0.02 0.03 0.03 0.03 0.04 0.04 0.03 0.02 0.01 0.01 0.01 0.02 0.02 0.01 0.01 0.01 0.01 0.01 0.01 0.01 0.01 0.01 0.01 0.01 0.01 0.01 0.01 0.01 0.01 0.01 0.01
0.01 0.01 0.01 0.01 0.02 0.01 0.01 0.01 0.01 0.01 0.01 0.01 0.01 0.02 0.02 0.02 0.03 0.03 0.03 0.02 0.02 0.02 0.03 0.02 0.01 0.01 0.01 0.01 0.01 0.01 0.01 0.01 0.01 0.01 0.01 0.01 0.01 0.01 0.01 0.01 0.01 0.01 0.01 0.02
0.01 0.01 0.01 0.02 0.02 0.02 0.02 0.02 0.01 0.01 0.01 0.01 0.02 0.02 0.02 0.02 0.02 0.02 0.02 0.02 0.03 0.04 0.03 0.01 0.01 0.02 0.01 0.01 0.01 0.01 0.01 0.01 0.01 0.01 0.01 0.01 0.01 0.01 0.01 0.01 0.01 0.01 0.01 0.01
0.01 0.01 0.01 0.01 0.01 0.01 0.02 0.02 0.02 0.02 0.02 0.01 0.02 0.02 0.02 0.02 0.02 0.02 0.02 0.02 0.02 0.02 0.01 0.01 0.02 0.02 0.01 0.01 0.01 0.01 0.01 0.01 0.01 0.01 0.01 0.01 0.01 0.01 0.01 0.01 0.01 0.01 0.01 0.01
0.00 0.00 0.00 0.01 0.01 0.01 0.01 0.01 0.01 0.01 0.02 0.02 0.02 0.02 0.02 0.02 0.02 0.02 0.01 0.01 0.01 0.02 0.01 0.02 0.02 0.01 0.01 0.01 0.01 0.01 0.01 0.01 0.01 0.01 0.01 0.01 0.01 0.01 0.01 0.01 0.01 0.01 0.01 0.01
0.00 0.00 0.00 0.01 0.01 0.01 0.01 0.01 0.01 0.01 0.02 0.02 0.02 0.02 0.02 0.02 0.02 0.01 0.01 0.01 0.02 0.02 0.02 0.02 0.01 0.02 0.02 0.02 0.01 0.01 0.01 0.01 0.01 0.01 0.01 0.01 0.01 0.01 0.01 0.01 0.01 0.01 0.01 0.02
0.01 0.01 0.01 0.00 0.00 0.01 0.01 0.01 0.01 0.01 0.01 0.02 0.02 0.02 0.02 0.02 0.02 0.01 0.01 0.02 0.02 0.02 0.02 0.01 0.02 0.02 0.02 0.02 0.01 0.01 0.01 0.02 0.02 0.02 0.01 0.01 0.01 0.01 0.01 0.01 0.01 0.01 0.01 0.02
0.01 0.01 0.00 0.00 0.00 0.01 0.01 0.01 0.01 0.01 0.01 0.01 0.02 0.02 0.02 0.02 0.01 0.01 0.01 0.02 0.02 0.02 0.02 0.02 0.02 0.02 0.02 0.02 0.01 0.01 0.01 0.02 0.02 0.02 0.01 0.01 0.01 0.01 0.01 0.01 0.01 0.01 0.01 0.01
0.00 0.00 0.00 0.00 0.00 0.00 0.00 0.01 0.01 0.01 0.01 0.01 0.01 0.01 0.01 0.01 0.01 0.01 0.02 0.02 0.02 0.01 0.02 0.02 0.02 0.02 0.01 0.01 0.01 0.01 0.01 0.01 0.01 0.01 0.01 0.01 0.01 0.01 0.01 0.01 0.01 0.01 0.01 0.01
0.00 0.00 0.00 0.00 0.00 0.00 0.00 0.01 0.01 0.01 0.01 0.01 0.01 0.01 0.01 0.01 0.01 0.01 0.01 0.01 0.01 0.01 0.01 0.01 0.01 0.01 0.01 0.01 0.01 0.01 0.01 0.01 0.01 0.01 0.01 0.01 0.00 0.00 0.01 0.01 0.01 0.01 0.01 0.01
0.00 0.00 0.00 0.00 0.00 0.00 0.01 0.01 0.01 0.01 0.01 0.01 0.01 0.01 0.01 0.01 0.01 0.01 0.01 0.01 0.01 0.01 0.01 0.01 0.01 0.01 0.01 0.01 0.01 0.01 0.01 0.01 0.01 0.01 0.00 0.00 0.00 0.00 0.00 0.00 0.00 0.00 0.01 0.01
0.00 0.00 0.00 0.00 0.00 0.00 0.00 0.01 0.01 0.01 0.01 0.01 0.01 0.01 0.01 0.01 0.01 0.01 0.01 0.01 0.01 0.01 0.00 0.00 0.00 0.00 0.00 0.00 0.01 0.01 0.01 0.01 0.01 0.00 0.00 0.00 0.00 0.00 0.00 0.00 0.00 0.00 0.01 0.00
MSLP
1032.11 1032.64 1033.07 1033.35 1033.48 1033.43 1033.21 1032.86 1032.42 1031.91 1031.40 1030.92 1030.50 1030.15 1029.89 1029.69 1029.55 1029.44 1029.35 1029.25 1029.12 1028.95 1028.72 1028.42 1028.05 1027.60 1027.07 1026.44 1025.73 1024.95 1024.11 1023.24 1022.36 1021.51 1020.73 1020.03 1019.45 1019.00 1018.69 1018.51 1018.44 1018.48 1018.60 1018.77
1032.70 1033.01 1033.21 1033.29 1033.24 1033.06 1032.75 1032.34 1031.87 1031.38 1030.88 1030.43 1030.03 1029.72 1029.47 1029.30 1029.18 1029.10 1029.03 1028.96 1028.86 1028.72 1028.53 1028.27 1027.93 1027.51 1027.01 1026.42 1025.74 1025.00 1024.21 1023.39 1022.56 1021.77 1021.02 1020.36 1019.80 1019.35 1019.02 1018.80 1018.69 1018.67 1018.72 1018.82
1033.06 1033.13 1033.10 1032.96 1032.72 1032.39 1031.99 1031.55 1031.08 1030.63 1030.20 1029.83 1029.52 1029.29 1029.11 1028.99 1028.91 1028.86 1028.81 1028.75 1028.66 1028.53 1028.34 1028.09 1027.77 1027.38 1026.90 1026.34 1025.72 1025.03 1024.30 1023.54 1022.79 1022.05 1021.36 1020.74 1020.20 1019.75 1019.39 1019.14 1018.97 1018.88 1018.86 1018.90
1033.09 1032.95 1032.71 1032.37 1031.97 1031.53 1031.07 1030.62 1030.20 1029.83 1029.52 1029.27 1029.09 1028.96 1028.88 1028.82 1028.78 1028.74 1028.69 1028.61 1028.50 1028.34 1028.14 1027.87 1027.55 1027.16 1026.71 1026.19 1025.62 1025.00 1024.34 1023.66 1022.98 1022.32 1021.68 1021.10 1020.59 1020.14 1019.76 1019.47 1019.24 1019.09 1019.00 1018.98
1032.75 1032.45 1032.05 1031.58 1031.07 1030.58 1030.11 1029.71 1029.39 1029.14 1028.97 1028.87 1028.82 1028.80 1028.80 1028.80 1028.78 1028.73 1028.65 1028.52 1028.35 1028.14 1027.88 1027.58 1027.24 1026.86 1026.43 1025.95 1025.44 1024.89 1024.31 1023.71 1023.11 1022.52 1021.95 1021.41 1020.91 1020.46 1020.07 1019.74 1019.47 1019.26 1019.11 1019.03
1032.05 1031.65 1031.17 1030.64 1030.12 1029.64 1029.24 1028.93 1028.73 1028.63 1028.61 1028.65 1028.72 1028.81 1028.87 1028.89 1028.86 1028.77 1028.63 1028.42 1028.17 1027.88 1027.56 1027.22 1026.85 1026.46 1026.05 1025.62 1025.17 1024.69 1024.19 1023.67 1023.15 1022.62 1022.10 1021.60 1021.12 1020.68 1020.27 1019.91 1019.61 1019.35 1019.17 1019.05
1031.02 1030.61 1030.13 1029.63 1029.16 1028.78 1028.49 1028.32 1028.26 1028.31 1028.43 1028.59 1028.76 1028.90 1028.99 1029.00 1028.94 1028.78 1028.55 1028.26 1027.92 1027.55 1027.16 1026.77 1026.38 1025.99 1025.61 1025.22 1024.82 1024.40 1023.98 1023.53 1023.07 1022.60 1022.13 1021.66 1021.20 1020.76 1020.34 1019.97 1019.64 1019.36 1019.15 1019.00
1029.75 1029.39 1028.99 1028.60 1028.26 1028.01 1027.88 1027.86 1027.95 1028.13 1028.36 1028.60 1028.82 1028.98 1029.06 1029.03 1028.90 1028.67 1028.36 1027.98 1027.56 1027.12 1026.69 1026.26 1025.86 1025.48 1025.12 1024.77 1024.42 1024.06 1023.69 1023.30 1022.89 1022.47 1022.02 1021.57 1021.12 1020.68 1020.27 1019.88 1019.55 1019.26 1019.04 1018.89
1028.35 1028.10 1027.84 1027.60 1027.43 1027.35 1027.38 1027.51 1027.73 1028.00 1028.29 1028.57 1028.79 1028.92 1028.95 1028.87 1028.67 1028.37 1027.99 1027.55 1027.08 1026.61 1026.15 1025.72 1025.33 1024.97 1024.63 1024.32 1024.01 1023.69 1023.36 1023.01 1022.63 1022.22 1021.79 1021.35 1020.90 1020.46 1020.05 1019.66 1019.33 1019.05 1018.84 1018.71
1026.92 1026.82 1026.72 1026.67 1026.68 1026.78 1026.96 1027.20 1027.50 1027.82 1028.12 1028.38 1028.56 1028.64 1028.60 1028.45 1028.20 1027.85 1027.43 1026.97 1026.49 1026.02 1025.58 1025.17 1024.81 1024.48 1024.18 1023.89 1023.61 1023.32 1023.00 1022.66 1022.28 1021.88 1021.44 1021.00 1020.55 1020.11 1019.69 1019.31 1018.99 1018.73 1018.54 1018.44
1025.57 1025.61 1025.70 1025.83 1026.02 1026.27 1026.56 1026.89 1027.22 1027.54 1027.80 1028.00 1028.10 1028.10 1028.00 1027.79 1027.49 1027.12 1026.71 1026.27 1025.83 1025.40 1025.01 1024.65 1024.33 1024.04 1023.77 1023.51 1023.23 1022.94 1022.62 1022.27 1021.88 1021.45 1021.00 1020.54 1020.08 1019.63 1019.22 1018.85 1018.55 1018.31 1018.16 1018.10
1024.35 1024.55 1024.80 1025.10 1025.44 1025.81 1026.19 1026.55 1026.87 1027.14 1027.33 1027.43 1027.44 1027.35 1027.18 1026.93 1026.62 1026.27 1025.89 1025.51 1025.14 1024.79 1024.47 1024.17 1023.90 1023.65 1023.40 1023.15 1022.87 1022.56 1022.22 1021.84 1021.42 1020.96 1020.49 1020.00 1019.53 1019.07 1018.66 1018.31 1018.02 1017.82 1017.71 1017.69
1023.28 1023.62 1024.03 1024.48 1024.95 1025.40 1025.82 1026.18 1026.46 1026.65 1026.75 1026.75 1026.66 1026.49 1026.27 1026.00 1025.70 1025.39 1025.08 1024.78 1024.50 1024.23 1023.98 1023.75 1023.52 1023.29 1023.05 1022.79 1022.49 1022.15 1021.78 1021.36 1020.90 1020.42 1019.91 1019.41 1018.92 1018.46 1018.06 1017.72 1017.46 1017.29 1017.22 1017.24
1022.34 1022.82 1023.36 1023.94 1024.51 1025.03 1025.47 1025.81 1026.03 1026.14 1026.14 1026.04 1025.86 1025.63 1025.38 1025.11 1024.84 1024.59 1024.35 1024.13 1023.93 1023.74 1023.55 1023.36 1023.16 1022.94 1022.68 1022.39 1022.07 1021.70 1021.28 1020.83 1020.34 1019.83 1019.30 1018.78 1018.29 1017.83 1017.44 1017.12 1016.89 1016.75 1016.72 1016.79
1021.49 1022.10 1022.77 1023.47 1024.12 1024.69 1025.14 1025.45 1025.62 1025.65 1025.56 1025.39 1025.15 1024.88 1024.61 1024.36 1024.13 1023.93 1023.76 1023.61 1023.47 1023.33 1023.17 1023.00 1022.79 1022.55 1022.27 1021.95 1021.58 1021.17 1020.72 1020.24 1019.73 1019.20 1018.67 1018.15 1017.67 1017.23 1016.85 1016.56 1016.36 1016.26 1016.27 1016.38
1020.69 1021.42 1022.21 1023.00 1023.73 1024.35 1024.81 1025.10 1025.23 1025.21 1025.07 1024.84 1024.57 1024.29 1024.03 1023.79 1023.60 1023.45 1023.32 1023.21 1023.11 1022.98 1022.83 1022.63 1022.40 1022.12 1021.79 1021.42 1021.02 1020.57 1020.10 1019.61 1019.09 1018.57 1018.05 1017.55 1017.08 1016.67 1016.32 1016.06 1015.89 1015.83 1015.88 1016.04
1019.91 1020.74 1021.64 1022.52 1023.32 1023.97 1024.45 1024.74 1024.85 1024.81 1024.64 1024.41 1024.13 1023.86 1023.61 1023.41 1023.25 1023.13 1023.03 1022.93 1022.82 1022.68 1022.49 1022.25 1021.97 1021.63 1021.26 1020.84 1020.40 1019.94 1019.46 1018.96 1018.46 1017.96 1017.47 1017.00 1016.57 1016.18 1015.87 1015.64 1015.51 1015.48 1015.57 1015.77
1019.13 1020.07 1021.05 1022.00 1022.85 1023.54 1024.03 1024.33 1024.45 1024.41 1024.26 1024.04 1023.79 1023.55 1023.33 1023.16 1023.03 1022.92 1022.82 1022.71 1022.57 1022.39 1022.15 1021.85 1021.50 1021.11 1020.69 1020.23 1019.77 1019.30 1018.82 1018.35 1017.88 1017.41 1016.95 1016.52 1016.12 1015.78 1015.50 1015.30 1015.21 1015.22 1015.34 1015.58
1018.39 1019.41 1020.46 1021.45 1022.33 1023.04 1023.55 1023.87 1024.00 1023.99 1023.87 1023.69 1023.48 1023.28 1023.11 1022.98 1022.86 1022.76 1022.65 1022.52 1022.33 1022.09 1021.79 1021.43 1021.03 1020.58 1020.12 1019.64 1019.17 1018.70 1018.25 1017.80 1017.36 1016.93 1016.52 1016.13 1015.77 1015.45 1015.21 1015.04 1014.98 1015.02 1015.18 1015.45
1017.77 1018.83 1019.90 1020.91 1021.79 1022.50 1023.01 1023.34 1023.50 1023.52 1023.44 1023.31 1023.16 1023.02 1022.89 1022.79 1022.70 1022.60 1022.47 1022.30 1022.07 1021.78 1021.42 1021.01 1020.56 1020.08 1019.59 1019.11 1018.64 1018.19 1017.76 1017.34 1016.94 1016.55 1016.17 1015.81 1015.48 1015.19 1014.97 1014.83 1014.80 1014.87 1015.06 1015.36
1017.31 1018.38 1019.44 1020.42 1021.27 1021.95 1022.45 1022.78 1022.95 1023.01 1022.98 1022.91 1022.81 1022.72 1022.65 1022.57 1022.50 1022.40 1022.25 1022.05 1021.79 1021.45 1021.05 1020.60 1020.12 1019.63 1019.13 1018.66 1018.20 1017.77 1017.37 1016.98 1016.61 1016.25 1015.89 1015.55 1015.24 1014.98 1014.78 1014.66 1014.64 1014.74 1014.96 1015.29
1017.08 1018.11 1019.12 1020.04 1020.83 1021.47 1021.93 1022.24 1022.43 1022.51 1022.52 1022.50 1022.46 1022.42 1022.38 1022.33 1022.27 1022.16 1022.00 1021.78 1021.48 1021.11 1020.69 1020.22 1019.73 1019.23 1018.75 1018.29 1017.86 1017.45 1017.07 1016.71 1016.36 1016.01 1015.67 1015.35 1015.05 1014.80 1014.61 1014.51 1014.51 1014.63 1014.88 1015.24
1017.07 1018.04 1018.97 1019.81 1020.52 1021.08 1021.50 1021.79 1021.97 1022.07 1022.11 1022.13 1022.14 1022.14 1022.13 1022.10 1022.03 1021.92 1021.74 1021.50 1021.17 1020.79 1020.35 1019.87 1019.39 1018.90 1018.43 1017.99 1017.59 1017.21 1016.85 1016.51 1016.17 1015.83 1015.50 1015.18 1014.88 1014.64 1014.46 1014.38 1014.40 1014.54 1014.81 1015.19
1017.25 1018.15 1018.98 1019.71 1020.33 1020.82 1021.19 1021.45 1021.63 1021.74 1021.82 1021.87 1021.91 1021.93 1021.93 1021.91 1021.83 1021.70 1021.50 1021.23 1020.88 1020.48 1020.03 1019.55 1019.08 1018.61 1018.16 1017.75 1017.37 1017.01 1016.67 1016.34 1016.01 1015.67 1015.35 1015.03 1014.74 1014.50 1014.34 1014.27 1014.31 1014.47 1014.76 1015.17
1017.54 1018.34 1019.07 1019.71 1020.25 1020.67 1021.00 1021.24 1021.42 1021.55 1021.65 1021.73 1021.79 1021.82 1021.83 1021.79 1021.70 1021.53 1021.30 1020.99 1020.62 1020.19 1019.74 1019.26 1018.79 1018.35 1017.92 1017.54 1017.18 1016.84 1016.51 1016.19 1015.87 1015.55 1015.22 1014.91 1014.63 1014.40 1014.25 1014.20 1014.26 1014.45 1014.76 1015.18
1017.83 1018.54 1019.18 1019.74 1020.20 1020.58 1020.88 1021.12 1021.31 1021.47 1021.60 1021.71 1021.78 1021.82 1021.82 1021.76 1021.63 1021.42 1021.15 1020.80 1020.39 1019.94 1019.47 1019.00 1018.54 1018.11 1017.71 1017.34 1017.01 1016.69 1016.38 1016.08 1015.76 1015.45 1015.13 1014.83 1014.56 1014.35 1014.22 1014.19 1014.27 1014.47 1014.80 1015.23
1018.01 1018.64 1019.21 1019.70 1020.13 1020.48 1020.79 1021.05 1021.27 1021.46 1021.63 1021.76 1021.85 1021.89 1021.87 1021.78 1021.61 1021.36 1021.03 1020.64 1020.20 1019.73 1019.25 1018.77 1018.32 1017.91 1017.53 1017.19 1016.88 1016.58 1016.29 1016.00 1015.71 1015.40 1015.10 1014.81 1014.56 1014.37 1014.25 1014.23 1014.33 1014.54 1014.87 1015.31
Thickness
5433 5430 5425 5425 5424 5419 5416 5427 5429 5439 5433 5436 5431 5425 5419 5412 5407 5404 5402 5401 5399 5398 5397 5395 5395 5396 5397 5399 5400 5401 5402 5404 5406 5408 5409 5412 5414 5415 5417 5419 5420 5420 5421 5421
5418 5419 5413 5414 5419 5418 5416 5419 5420 5421 5423 5425 5416 5410 5408 5404 5398 5395 5394 5392 5390 5389 5388 5387 5387 5388 5389 5390 5391 5393 5395 5396 5397 5398 5400 5402 5405 5406 5408 5409 5410 5410 5411 5411
5429 5408 5403 5422 5423 5415 5414 5413 5413 5417 5422 5415 5408 5403 5399 5395 5391 5387 5385 5383 5382 5382 5380 5380 5379 5380 5381 5382 5383 5384 5386 5387 5389 5390 5391 5393 5395 5396 5398 5399 5400 5401 5401 5401
5413 5405 5417 5434 5411 5409 5406 5406 5404 5404 5404 5400 5396 5391 5387 5384 5382 5380 5378 5377 5375 5374 5373 5373 5372 5373 5374 5375 5375 5376 5377 5379 5380 5381 5382 5383 5385 5386 5388 5389 5390 5391 5391 5392
5404 5413 5425 5421 5405 5397 5394 5400 5397 5393 5391 5389 5384 5384 5387 5379 5374 5372 5370 5369 5367 5366 5365 5365 5365 5366 5367 5368 5368 5369 5370 5371 5371 5372 5373 5374 5375 5377 5378 5379 5380 5381 5382 5382
5395 5406 5418 5423 5397 5387 5388 5399 5393 5384 5381 5379 5376 5386 5390 5374 5367 5365 5363 5361 5360 5359 5359 5359 5359 5359 5360 5361 5362 5362 5362 5362 5363 5363 5365 5366 5367 5368 5369 5370 5371 5372 5373 5374
5392 5400 5413 5401 5383 5380 5395 5402 5383 5377 5373 5368 5370 5373 5369 5364 5361 5359 5357 5355 5353 5353 5352 5352 5352 5353 5354 5355 5355 5355 5354 5355 5355 5356 5358 5359 5359 5360 5360 5361 5362 5363 5365 5365
5386 5392 5406 5384 5377 5385 5390 5378 5372 5368 5365 5361 5359 5357 5357 5356 5355 5353 5351 5349 5347 5347 5346 5346 5345 5346 5348 5348 5348 5347 5347 5348 5348 5349 5350 5351 5351 5352 5352 5353 5354 5356 5357 5358
5387 5397 5387 5375 5375 5372 5367 5366 5365 5361 5357 5353 5351 5351 5351 5350 5348 5346 5344 5343 5341 5340 5340 5340 5339 5340 5341 5341 5340 5340 5340 5341 5341 5342 5342 5343 5344 5344 5345 5346 5347 5348 5349 5350
5369 5380 5376 5370 5367 5364 5360 5358 5356 5353 5349 5347 5345 5345 5345 5344 5342 5341 5339 5337 5335 5334 5335 5335 5334 5333 5333 5333 5333 5333 5334 5335 5335 5335 5336 5335 5335 5336 5337 5338 5339 5340 5341 5342
5364 5372 5368 5369 5365 5361 5356 5352 5348 5346 5343 5341 5340 5339 5338 5338 5337 5335 5333 5331 5330 5330 5329 5329 5329 5328 5327 5327 5327 5327 5328 5328 5328 5328 5328 5328 5328 5328 5329 5330 5330 5331 5332 5333
5380 5375 5369 5370 5363 5356 5352 5349 5345 5342 5339 5337 5335 5334 5333 5332 5331 5329 5328 5327 5325 5325 5325 5325 5324 5323 5323 5322 5322 5322 5322 5322 5322 5321 5321 5321 5321 5321 5321 5321 5322 5322 5323 5324
5365 5360 5357 5355 5352 5349 5347 5344 5340 5337 5335 5332 5330 5328 5327 5326 5325 5324 5323 5323 5322 5321 5320 5320 5320 5320 5319 5318 5317 5316 5316 5316 5315 5314 5314 5314 5314 5315 5315 5315 5314 5315 5315 5316
5351 5348 5348 5348 5346 5342 5339 5337 5334 5331 5329 5327 5325 5323 5321 5320 5320 5320 5320 5320 5319 5318 5318 5317 5316 5315 5314 5313 5312 5311 5310 5309 5309 5308 5308 5307 5307 5307 5308 5308 5309 5309 5309 5309
5345 5342 5342 5339 5336 5334 5332 5330 5328 5326 5324 5322 5320 5318 5317 5316 5316 5316 5315 5315 5314 5314 5314 5313 5312 5311 5309 5308 5307 5306 5305 5304 5303 5303 5302 5301 5301 5301 5301 5301 5302 5303 5304 5304
5339 5336 5334 5332 5331 5329 5326 5325 5324 5322 5320 5318 5316 5314 5312 5311 5310 5311 5311 5310 5310 5311 5310 5308 5308 5307 5305 5304 5303 5301 5300 5298 5298 5297 5296 5296 5296 5296 5296 5296 5297 5297 5298 5298
5333 5333 5330 5328 5327 5324 5322 5320 5319 5318 5315 5313 5311 5309 5307 5306 5306 5307 5307 5306 5306 5305 5305 5304 5303 5302 5301 5300 5299 5298 5296 5295 5293 5293 5292 5291 5291 5291 5291 5291 5291 5291 5291 5291
5330 5330 5327 5325 5323 5320 5318 5316 5314 5313 5311 5309 5306 5304 5303 5303 5304 5303 5302 5302 5302 5302 5302 5301 5300 5299 5298 5296 5295 5294 5292 5291 5290 5289 5288 5287 5286 5286 5286 5286 5286 5286 5286 5286
5324 5322 5320 5318 5317 5315 5313 5312 5310 5308 5306 5303 5301 5300 5299 5298 5298 5298 5298 5298 5299 5300 5299 5297 5296 5295 5294 5293 5291 5290 5288 5287 5286 5285 5284 5283 5282 5282 5282 5282 5281 5281 5281 5281
5319 5317 5315 5313 5311 5309 5308 5307 5305 5303 5301 5298 5296 5295 5294 5294 5293 5293 5294 5294 5296 5296 5294 5293 5293 5292 5290 5289 5288 5286 5285 5283 5282 5281 5280 5279 5278 5278 5277 5277 5277 5277 5277 5277
5313 5311 5309 5307 5305 5303 5302 5301 5299 5297 5295 5293 5292 5291 5290 5289 5288 5288 5290 5293 5291 5290 5290 5290 5289 5288 5287 5285 5284 5282 5281 5279 5278 5277 5276 5275 5274 5274 5273 5273 5273 5273 5273 5274
5306 5305 5303 5301 5299 5298 5296 5295 5293 5291 5290 5288 5287 5286 5285 5285 5285 5285 5286 5287 5287 5286 5286 5286 5285 5284 5283 5281 5280 5278 5276 5274 5273 5272 5271 5271 5270 5270 5269 5269 5269 5269 5269 5270
5300 5298 5297 5295 5293 5292 5290 5289 5288 5286 5285 5284 5283 5283 5283 5282 5282 5283 5284 5283 5282 5283 5283 5282 5281 5280 5279 5277 5275 5273 5271 5270 5268 5267 5267 5266 5266 5265 5265 5265 5265 5265 5266 5266
5294 5292 5290 5288 5286 5286 5286 5285 5283 5282 5280 5279 5279 5278 5278 5279 5279 5279 5278 5278 5278 5278 5278 5277 5276 5276 5274 5272 5270 5268 5266 5265 5264 5263 5262 5261 5261 5261 5261 5261 5261 5262 5262 5263
5288 5286 5284 5283 5283 5283 5282 5280 5278 5278 5277 5277 5276 5275 5274 5274 5274 5274 5274 5273 5273 5274 5273 5272 5271 5270 5268 5266 5264 5263 5262 5260 5259 5258 5258 5257 5257 5257 5258 5258 5258 5258 5259 5260
5283 5283 5281 5279 5279 5278 5277 5276 5276 5275 5274 5274 5273 5271 5271 5270 5269 5269 5269 5269 5268 5268 5267 5266 5265 5263 5262 5261 5259 5258 5257 5256 5254 5253 5253 5253 5253 5254 5254 5254 5255 5255 5256 5257
5278 5277 5276 5276 5275 5273 5272 5272 5271 5270 5269 5268 5268 5267 5266 5265 5265 5264 5264 5264 5263 5262 5261 5260 5259 5258 5257 5256 5255 5253 5252 5251 5250 5249 5249 5249 5249 5250 5251 5251 5252 5253 5253 5254